Home > Weather > Aalen > Past weeks

Flag for Germany Weather for the Past 2 Weeks in Aalen, Baden-Württemberg, Germany

Now
32 °F

Passing clouds.


Feels Like: 27 °F
Forecast: 31 / 42 °F
Wind: 5 mph from Southeast

Location: Niederstetten

Current Time: Feb 12, 2016 at 6:49:31 AM

Latest Report: Feb 12, 2016 at 5:20 AM


Visibility: N/A

Pressure: 29.65 "Hg

Humidity: 87%

Dew point: 28 °F

Location of AalenLocation

Historic Weather in Aalen — Graph

°F

Aalen Temperature Yesterday

Maximum temperature yesterday: 37 °F (at 3:20 PM)
Minimum temperature yesterday: 34 °F (at 12:20 AM)
Average temperature yesterday: 34 °F

High & Low Weather Summary for the Past Weeks

 TemperatureHumidityPressure
High54 °F (Feb 6, 2:20 PM)100% (Jan 28, 10:20 PM)30.39 "Hg (Jan 28, 10:20 PM)
Low30 °F (Feb 3, 7:20 PM)54% (Feb 6, 2:20 PM)29.12 "Hg (Feb 9, 5:20 PM)
Average40 °F85%29.92 "Hg
* Reported Jan 28 4:20 AM — Feb 12 4:20 AM, Aalen, Weather by CustomWeather, © 2016

Note: Actual official high and low records may vary slightly from our data, if they occured in-between our weather recording intervals... More about our weather records

Advertising

Aalen Weather History for the Previous 24 Hours

 ConditionsComfort  
Time TempWeatherWind HumidityBarometerVisibility
4:20 AM
Fri, Feb 12
32 °FPartly cloudy.5 mph93%29.65 "HgN/A
3:20 AM32 °FPartly cloudy.2 mph93%29.68 "HgN/A
2:20 AM34 °FPassing clouds.2 mph93%29.68 "HgN/A
1:50 AM34 °FLight rain. Mostly cloudy.1 mph93%29.68 "HgN/A
1:20 AM34 °FLight rain. Partly cloudy.2 mph93%29.68 "HgN/A
12:20 AM34 °FMostly cloudy.5 mph93%29.68 "HgN/A
11:20 PM
Thu, Feb 11
36 °FOvercast.6 mph87%29.68 "HgN/A
10:20 PM34 °FPassing clouds.5 mph93%29.71 "HgN/A
9:20 PM34 °FPassing clouds.3 mph93%29.68 "HgN/A
8:20 PM34 °FPassing clouds.5 mph93%29.68 "HgN/A
7:20 PM34 °FPartly cloudy.6 mph93%29.71 "HgN/A
6:20 PM36 °FPartly cloudy.8 mph87%29.71 "HgN/A
5:20 PM36 °FBroken clouds.7 mph87%29.68 "HgN/A
5:00 PM36 °FBroken clouds.9 mph87%29.68 "HgN/A
4:20 PM36 °FBroken clouds.9 mph87%29.68 "HgN/A
3:20 PM37 °FSprinkles. Mostly cloudy.15 mph81%29.68 "Hg5 mi
2:20 PM36 °FLight rain. Mostly cloudy.9 mph93%29.68 "HgN/A
1:20 PM36 °FLight rain. Mostly cloudy.14 mph93%29.71 "HgN/A
12:20 PM36 °FLight rain. Mostly cloudy.15 mph87%29.71 "HgN/A
11:20 AM36 °FMostly cloudy.15 mph87%29.71 "HgN/A
10:20 AM34 °FLight snow. Mostly cloudy.14 mph93%29.71 "Hg5 mi
9:49 AM34 °FLight snow. Mostly cloudy.15 mph93%29.71 "Hg5 mi
9:20 AM34 °FLight snow. Mostly cloudy.14 mph93%29.71 "Hg3 mi
9:02 AM34 °FLight snow. Mostly cloudy.16 mph93%29.71 "Hg4 mi
8:20 AM34 °FLight snow. Partly sunny.13 mph93%29.68 "Hg3 mi
7:47 AM34 °FLow clouds.14 mph93%29.68 "Hg4 mi
7:20 AM34 °FLow clouds.14 mph93%29.68 "HgN/A
6:20 AM34 °FLight rain. Low clouds.15 mph93%29.65 "Hg5 mi
Weather by CustomWeather, © 2016

See weather overviewHow to use our weather pages